Simultaneous Nadir Overpasses (SNOs) Predictions

Prediction of SNOs between GOES-15 and METOP-A Satellite Orbit:

Table of predicted SNOs for the next 14.0 days since TLE Epoch: 3/22/2019
Index Date Time (GOES-15) GOES-15 Lat,Lon METOP-A Lat,Lon Distance(km) Time Diff (sec)
1 03/24/2019 05:39:12 -0.00,-128.28 0.11,-127.73 61.44 80
2 03/25/2019 17:57:59 -0.00,-128.23 0.87,-132.30 463.19 80
3 03/26/2019 17:39:57 -0.00,-128.22 -0.23,-127.31 104.55 80
4 03/28/2019 05:58:34 0.01,-128.21 -0.78,-131.91 420.42 61
5 03/29/2019 05:35:30 0.01,-128.19 0.27,-126.90 146.90 80
6 03/30/2019 17:54:17 -0.01,-128.14 0.72,-131.47 378.71 80
7 03/31/2019 17:36:14 -0.01,-128.12 -0.39,-126.47 188.60 80
8 04/02/2019 05:52:31 0.01,-128.11 -0.62,-131.07 336.64 80
9 04/03/2019 05:34:27 0.01,-128.09 0.43,-126.06 230.41 80
10 04/04/2019 17:50:35 -0.01,-128.03 0.55,-130.63 295.87 80
11 04/05/2019 17:32:32 -0.01,-128.01 -0.56,-125.63 271.06 80




NCC Satellite Simultaneous Nadir Overpasses (SNOs) Prediction Service
